,,,PA_Meas_PMT16A,,PR_Meas_QMR101_102,,RH_Meas_QMH101,,SR_Meas_QMS101,,TA_Meas_QMH101,,GenWind,,GenWind,
date,time,status,PA,status,PR,status,RH,status,SR,status,TA,status,DirAvg,status,SpdAvg,
2009-08-29, 00:00:04,VALID,1010.05,VALID,0,VALID,97.3885,VALID,0,VALID,23.926,VALID,14,VALID,0,
2009-08-29, 00:01:04,VALID,1010.03,VALID,0,VALID,97.3732,VALID,0.105969,VALID,23.9455,VALID,14,VALID,0,
2009-08-29, 00:02:04,VALID,1009.99,VALID,0,VALID,97.3351,VALID,0.105969,VALID,23.9668,VALID,14,VALID,0,
2009-08-29, 00:03:04,VALID,1010.02,VALID,0,VALID,97.3656,VALID,0.105969,VALID,23.9668,VALID,14,VALID,0,
2009-08-29, 00:04:04,VALID,1010.07,VALID,0,VALID,97.3427,VALID,0.105969,VALID,23.9455,VALID,14,VALID,0,
2009-08-29, 00:05:04,VALID,1010.05,VALID,0,VALID,97.358,VALID,0.105969,VALID,23.9455,VALID,14,VALID,0,
2009-08-29, 00:06:04,VALID,1010.06,VALID,0,VALID,97.3656,VALID,0,VALID,23.926,VALID,14,VALID,0,
2009-08-29, 00:07:04,VALID,1010.07,VALID,0,VALID,97.3427,VALID,0.105969,VALID,23.926,VALID,14,VALID,0,
2009-08-29, 00:08:04,VALID,1010.09,VALID,0,VALID,97.3504,VALID,0,VALID,23.9278,VALID,14,VALID,0,
2009-08-29, 00:09:04,VALID,1010.08,VALID,0,VALID,97.3504,VALID,0,VALID,23.9065,VALID,14,VALID,0,
2009-08-29, 00:10:04,VALID,1010.07,VALID,0,VALID,97.358,VALID,0,VALID,23.8871,VALID,14,VALID,0,
2009-08-29, 00:11:04,VALID,1010.07,VALID,0,VALID,97.3732,VALID,0,VALID,23.8889,VALID,14,VALID,0,
2009-08-29, 00:12:04,VALID,1010.03,VALID,0,VALID,97.3961,VALID,0.105969,VALID,23.9084,VALID,14,VALID,0,
2009-08-29, 00:13:04,VALID,1010.02,VALID,0,VALID,97.4114,VALID,0.105969,VALID,23.8676,VALID,14,VALID,0,
2009-08-29, 00:14:04,VALID,1009.99,VALID,0,VALID,97.4037,VALID,0,VALID,23.8889,VALID,14,VALID,0,
2009-08-29, 00:15:04,VALID,1009.98,VALID,0,VALID,97.4342,VALID,0.105969,VALID,23.8694,VALID,14,VALID,0,
2009-08-29, 00:16:04,VALID,1009.96,VALID,0,VALID,97.4419,VALID,0,VALID,23.8481,VALID,14,VALID,0,
2009-08-29, 00:17:04,VALID,1009.96,VALID,0,VALID,97.4495,VALID,0,VALID,23.8694,VALID,14,VALID,0,
2009-08-29, 00:18:04,VALID,1009.91,VALID,0,VALID,97.4648,VALID,0,VALID,23.8694,VALID,14,VALID,0,
2009-08-29, 00:19:04,VALID,1009.89,VALID,0,VALID,97.48,VALID,0.105969,VALID,23.8694,VALID,14,VALID,0,
2009-08-29, 00:20:04,VALID,1009.87,VALID,0,VALID,97.4953,VALID,0.105969,VALID,23.8499,VALID,14,VALID,0,
2009-08-29, 00:21:04,VALID,1009.84,VALID,0,VALID,97.4953,VALID,0,VALID,23.8499,VALID,14,VALID,0,
2009-08-29, 00:22:04,VALID,1009.82,VALID,0,VALID,97.5258,VALID,0,VALID,23.8499,VALID,14,VALID,0,
2009-08-29, 00:23:04,VALID,1009.79,VALID,0,VALID,97.5181,VALID,0,VALID,23.8499,VALID,14,VALID,0,
2009-08-29, 00:24:04,VALID,1009.79,VALID,0,VALID,97.5258,VALID,0.105969,VALID,23.8499,VALID,14,VALID,0,
2009-08-29, 00:25:04,VALID,1009.78,VALID,0,VALID,97.5181,VALID,0,VALID,23.8499,VALID,14,VALID,0,
2009-08-29, 00:26:04,VALID,1009.77,VALID,0,VALID,97.5486,VALID,0.105969,VALID,23.8499,VALID,14,VALID,0,
2009-08-29, 00:27:04,VALID,1009.78,VALID,0,VALID,97.5868,VALID,0,VALID,23.8286,VALID,14,VALID,0,
2009-08-29, 00:28:04,VALID,1009.76,VALID,0,VALID,97.5944,VALID,0,VALID,23.8499,VALID,14,VALID,0,
2009-08-29, 00:29:04,VALID,1009.74,VALID,0,VALID,97.6096,VALID,0,VALID,23.8286,VALID,14,VALID,0,
2009-08-29, 00:30:04,VALID,1009.69,VALID,0,VALID,97.6173,VALID,0,VALID,23.8499,VALID,14,VALID,0,
2009-08-29, 00:31:04,VALID,1009.69,VALID,0,VALID,97.6478,VALID,0,VALID,23.8286,VALID,14,VALID,0,
2009-08-29, 00:32:04,VALID,1009.68,VALID,0,VALID,97.6554,VALID,0,VALID,23.8499,VALID,14,VALID,0,
2009-08-29, 00:33:04,VALID,1009.68,VALID,0,VALID,97.663,VALID,0,VALID,23.8304,VALID,14,VALID,0,
2009-08-29, 00:34:04,VALID,1009.69,VALID,0,VALID,97.6783,VALID,0,VALID,23.8091,VALID,14,VALID,0,
2009-08-29, 00:35:04,VALID,1009.66,VALID,0,VALID,97.6706,VALID,0,VALID,23.8304,VALID,14,VALID,0,
2009-08-29, 00:36:04,VALID,1009.64,VALID,0,VALID,97.6859,VALID,0.105969,VALID,23.8286,VALID,14,VALID,0,
2009-08-29, 00:37:04,VALID,1009.59,VALID,0,VALID,97.7012,VALID,0,VALID,23.8091,VALID,14,VALID,0,
2009-08-29, 00:38:04,VALID,1009.59,VALID,0,VALID,97.7164,VALID,0,VALID,23.8304,VALID,14,VALID,0,
2009-08-29, 00:39:04,VALID,1009.56,VALID,0,VALID,97.7393,VALID,0,VALID,23.8286,VALID,14,VALID,0,
2009-08-29, 00:40:04,VALID,1009.53,VALID,0,VALID,97.7317,VALID,0.105969,VALID,23.8499,VALID,14,VALID,0,
2009-08-29, 00:41:04,VALID,1009.52,VALID,0,VALID,97.724,VALID,0.105969,VALID,23.8304,VALID,14,VALID,0,
2009-08-29, 00:42:04,VALID,1009.51,VALID,0,VALID,97.7393,VALID,0.105969,VALID,23.8286,VALID,14,VALID,0,
2009-08-29, 00:43:04,VALID,1009.54,VALID,0,VALID,97.724,VALID,0.105969,VALID,23.8304,VALID,14,VALID,0,
2009-08-29, 00:44:04,VALID,1009.52,VALID,0,VALID,97.7317,VALID,0,VALID,23.8091,VALID,14,VALID,0,
2009-08-29, 00:45:04,VALID,1009.52,VALID,0,VALID,97.724,VALID,0,VALID,23.8109,VALID,14,VALID,0,
2009-08-29, 00:46:05,VALID,1009.55,VALID,0,VALID,97.7164,VALID,0.105969,VALID,23.8091,VALID,14,VALID,0,
2009-08-29, 00:47:05,VALID,1009.56,VALID,0,VALID,97.7393,VALID,0.105969,VALID,23.7896,VALID,14,VALID,0,
2009-08-29, 00:48:05,VALID,1009.56,VALID,0,VALID,97.7317,VALID,0,VALID,23.7896,VALID,14,VALID,0,
2009-08-29, 00:49:05,VALID,1009.54,VALID,0,VALID,97.7393,VALID,0.105969,VALID,23.8109,VALID,14,VALID,0,
2009-08-29, 00:50:05,VALID,1009.57,VALID,0,VALID,97.7545,VALID,0,VALID,23.8109,VALID,14,VALID,0,
2009-08-29, 00:51:05,VALID,1009.55,VALID,0,VALID,97.724,VALID,0,VALID,23.8109,VALID,14,VALID,0,
2009-08-29, 00:52:05,VALID,1009.55,VALID,0,VALID,97.7469,VALID,0.105969,VALID,23.7914,VALID,14,VALID,0,
2009-08-29, 00:53:05,VALID,1009.54,VALID,0,VALID,97.724,VALID,0.105969,VALID,23.7701,VALID,14,VALID,0,
2009-08-29, 00:54:05,VALID,1009.53,VALID,0,VALID,97.7317,VALID,0.105969,VALID,23.7914,VALID,14,VALID,0,
2009-08-29, 00:55:05,VALID,1009.54,VALID,0,VALID,97.7317,VALID,0,VALID,23.7701,VALID,14,VALID,0,
2009-08-29, 00:56:05,VALID,1009.57,VALID,0,VALID,97.7317,VALID,0.105969,VALID,23.7701,VALID,14,VALID,0,
2009-08-29, 00:57:05,VALID,1009.57,VALID,0,VALID,97.7469,VALID,0,VALID,23.7507,VALID,14,VALID,0,
2009-08-29, 00:58:05,VALID,1009.56,VALID,0,VALID,97.7545,VALID,0,VALID,23.7507,VALID,14,VALID,0,
2009-08-29, 00:59:05,VALID,1009.6,VALID,0,VALID,97.7698,VALID,0,VALID,23.772,VALID,14,VALID,0,
2009-08-29, 01:00:05,VALID,1009.56,VALID,0,VALID,97.7698,VALID,0.105969,VALID,23.7507,VALID,14,VALID,0,
2009-08-29, 01:01:05,VALID,1009.55,VALID,0,VALID,97.7774,VALID,0.105969,VALID,23.772,VALID,14,VALID,0.317187,
2009-08-29, 01:02:05,VALID,1009.52,VALID,0,VALID,97.8003,VALID,0.105969,VALID,23.772,VALID,14,VALID,0.265234,
2009-08-29, 01:03:05,VALID,1009.56,VALID,0,VALID,97.8079,VALID,0.105969,VALID,23.7312,VALID,14,VALID,0.234766,
2009-08-29, 01:04:05,VALID,1009.56,VALID,0,VALID,97.8003,VALID,0.105969,VALID,23.7312,VALID,14,VALID,0.220703,
2009-08-29, 01:05:05,VALID,1009.57,VALID,0,VALID,97.8079,VALID,0,VALID,23.733,VALID,14,VALID,0,
2009-08-29, 01:06:05,VALID,1009.57,VALID,0,VALID,97.8003,VALID,0.105969,VALID,23.7117,VALID,14,VALID,0,
2009-08-29, 01:07:05,VALID,1009.59,VALID,0,VALID,97.8079,VALID,0.105969,VALID,23.733,VALID,14,VALID,0.393359,
2009-08-29, 01:08:05,VALID,1009.59,VALID,0,VALID,97.8079,VALID,0,VALID,23.7135,VALID,14,VALID,0.233984,
2009-08-29, 01:09:05,VALID,1009.59,VALID,0,VALID,97.8384,VALID,0.105969,VALID,23.7135,VALID,14,VALID,0.362109,
2009-08-29, 01:10:05,VALID,1009.6,VALID,0,VALID,97.8308,VALID,0.105969,VALID,23.6922,VALID,14,VALID,0.206641,
2009-08-29, 01:11:05,VALID,1009.57,VALID,0,VALID,97.8384,VALID,0,VALID,23.6922,VALID,14,VALID,0,
2009-08-29, 01:12:05,VALID,1009.58,VALID,0,VALID,97.8384,VALID,0.105969,VALID,23.694,VALID,14,VALID,0.291406,
2009-08-29, 01:13:05,VALID,1009.57,VALID,0,VALID,97.8537,VALID,0.105969,VALID,23.6727,VALID,14,VALID,0.219531,
2009-08-29, 01:14:05,VALID,1009.55,VALID,0,VALID,97.8537,VALID,0.105969,VALID,23.694,VALID,14,VALID,0.414063,
2009-08-29, 01:15:05,VALID,1009.57,VALID,0,VALID,97.8689,VALID,0.105969,VALID,23.694,VALID,14,VALID,0.374609,
2009-08-29, 01:16:05,VALID,1009.52,VALID,0,VALID,97.8765,VALID,0.105969,VALID,23.6532,VALID,14,VALID,0.257813,
2009-08-29, 01:17:05,VALID,1009.49,VALID,0,VALID,97.8689,VALID,0,VALID,23.694,VALID,14,VALID,0.180469,
2009-08-29, 01:18:05,VALID,1009.49,VALID,0,VALID,97.8994,VALID,0.105969,VALID,23.694,VALID,14,VALID,0,
2009-08-29, 01:19:05,VALID,1009.46,VALID,0,VALID,97.9071,VALID,0.105969,VALID,23.694,VALID,14,VALID,0,
2009-08-29, 01:20:05,VALID,1009.44,VALID,0,VALID,97.9376,VALID,0.105969,VALID,23.694,VALID,14,VALID,0.212109,
2009-08-29, 01:21:05,VALID,1009.41,VALID,0,VALID,97.9376,VALID,0,VALID,23.694,VALID,14,VALID,0,
2009-08-29, 01:22:05,VALID,1009.39,VALID,0,VALID,97.9528,VALID,0,VALID,23.6727,VALID,14,VALID,0,
2009-08-29, 01:23:05,VALID,1009.39,VALID,0,VALID,97.9757,VALID,0.105969,VALID,23.7135,VALID,14,VALID,0,
2009-08-29, 01:24:05,VALID,1009.41,VALID,0,VALID,97.9604,VALID,0.105969,VALID,23.7135,VALID,14,VALID,0,
2009-08-29, 01:25:05,VALID,1009.43,VALID,0,VALID,97.9757,VALID,0,VALID,23.6922,VALID,14,VALID,0,
2009-08-29, 01:26:05,VALID,1009.46,VALID,0,VALID,97.9604,VALID,0,VALID,23.6922,VALID,14,VALID,0,
2009-08-29, 01:27:05,VALID,1009.48,VALID,0,VALID,97.9757,VALID,0.105969,VALID,23.6922,VALID,14,VALID,0,
2009-08-29, 01:28:05,VALID,1009.47,VALID,0,VALID,97.9833,VALID,0.105969,VALID,23.6922,VALID,14,VALID,0,
2009-08-29, 01:29:05,VALID,1009.5,VALID,0,VALID,97.9833,VALID,0.105969,VALID,23.6922,VALID,14,VALID,0,
2009-08-29, 01:30:05,VALID,1009.49,VALID,0,VALID,97.9833,VALID,0,VALID,23.6922,VALID,14,VALID,0,
2009-08-29, 01:31:05,VALID,1009.47,VALID,0,VALID,97.9986,VALID,0.105969,VALID,23.733,VALID,14,VALID,0,
2009-08-29, 01:32:05,VALID,1009.44,VALID,0,VALID,97.9833,VALID,0.105969,VALID,23.6922,VALID,14,VALID,0,
2009-08-29, 01:33:05,VALID,1009.43,VALID,0,VALID,97.9833,VALID,0,VALID,23.7135,VALID,14,VALID,0,
2009-08-29, 01:34:05,VALID,1009.4,VALID,0,VALID,97.9757,VALID,0.105969,VALID,23.733,VALID,14,VALID,0,
2009-08-29, 01:35:05,VALID,1009.42,VALID,0,VALID,97.9986,VALID,0,VALID,23.733,VALID,14,VALID,0,
2009-08-29, 01:36:05,VALID,1009.39,VALID,0,VALID,97.9909,VALID,0,VALID,23.7135,VALID,14,VALID,0,
2009-08-29, 01:37:05,VALID,1009.38,VALID,0,VALID,97.9681,VALID,0,VALID,23.7135,VALID,14,VALID,0,
2009-08-29, 01:38:05,VALID,1009.37,VALID,0,VALID,97.9757,VALID,0,VALID,23.7135,VALID,14,VALID,0,
2009-08-29, 01:39:05,VALID,1009.39,VALID,0,VALID,97.9757,VALID,0,VALID,23.7135,VALID,14,VALID,0,
2009-08-29, 01:40:05,VALID,1009.39,VALID,0,VALID,97.9909,VALID,0,VALID,23.6922,VALID,14,VALID,0,
2009-08-29, 01:41:05,VALID,1009.41,VALID,0,VALID,97.9604,VALID,0,VALID,23.7135,VALID,14,VALID,0,
2009-08-29, 01:42:05,VALID,1009.4,VALID,0,VALID,97.9681,VALID,0,VALID,23.7135,VALID,14,VALID,0,
2009-08-29, 01:43:05,VALID,1009.39,VALID,0,VALID,97.9604,VALID,0,VALID,23.7135,VALID,14,VALID,0,
2009-08-29, 01:44:05,VALID,1009.38,VALID,0,VALID,97.9681,VALID,0,VALID,23.7135,VALID,14,VALID,0,
2009-08-29, 01:45:05,VALID,1009.36,VALID,0,VALID,97.9604,VALID,0,VALID,23.7135,VALID,14,VALID,0,
2009-08-29, 01:46:05,VALID,1009.32,VALID,0,VALID,97.9528,VALID,0,VALID,23.694,VALID,14,VALID,0,
2009-08-29, 01:47:05,VALID,1009.33,VALID,0,VALID,97.9528,VALID,0,VALID,23.7135,VALID,14,VALID,0,
2009-08-29, 01:48:05,VALID,1009.36,VALID,0,VALID,97.9528,VALID,0,VALID,23.7135,VALID,14,VALID,0,
2009-08-29, 01:49:05,VALID,1009.35,VALID,0,VALID,97.9528,VALID,0,VALID,23.7135,VALID,14,VALID,0,
2009-08-29, 01:50:05,VALID,1009.35,VALID,0,VALID,97.9376,VALID,0,VALID,23.7135,VALID,14,VALID,0,
2009-08-29, 01:51:05,VALID,1009.32,VALID,0,VALID,97.9376,VALID,0,VALID,23.7135,VALID,14,VALID,0,
2009-08-29, 01:52:05,VALID,1009.31,VALID,0,VALID,97.9376,VALID,0,VALID,23.7135,VALID,14,VALID,0,
2009-08-29, 01:53:05,VALID,1009.32,VALID,0,VALID,97.9376,VALID,0,VALID,23.7135,VALID,14,VALID,0,
2009-08-29, 01:54:05,VALID,1009.3,VALID,0,VALID,97.9376,VALID,0,VALID,23.7135,VALID,14,VALID,0,
2009-08-29, 01:55:05,VALID,1009.29,VALID,0,VALID,97.9299,VALID,0,VALID,23.7135,VALID,14,VALID,0,
2009-08-29, 01:56:05,VALID,1009.28,VALID,0,VALID,97.9299,VALID,0,VALID,23.694,VALID,14,VALID,0,
2009-08-29, 01:57:05,VALID,1009.27,VALID,0,VALID,97.9147,VALID,0,VALID,23.694,VALID,14,VALID,0,
2009-08-29, 01:58:05,VALID,1009.25,VALID,0,VALID,97.9299,VALID,0,VALID,23.694,VALID,14,VALID,0,
2009-08-29, 01:59:05,VALID,1009.25,VALID,0,VALID,97.9147,VALID,0,VALID,23.6745,VALID,14,VALID,0,
2009-08-29, 02:00:05,VALID,1009.27,VALID,0,VALID,97.8918,VALID,0,VALID,23.6745,VALID,14,VALID,0,
2009-08-29, 02:01:05,VALID,1009.28,VALID,0,VALID,97.9071,VALID,0,VALID,23.6958,VALID,14,VALID,0,
2009-08-29, 02:02:05,VALID,1009.29,VALID,0,VALID,97.8994,VALID,0,VALID,23.655,VALID,14,VALID,0,
2009-08-29, 02:03:05,VALID,1009.31,VALID,0,VALID,97.8918,VALID,0,VALID,23.655,VALID,14,VALID,0,
2009-08-29, 02:04:05,VALID,1009.34,VALID,0,VALID,97.8994,VALID,0,VALID,23.6745,VALID,14,VALID,0,
2009-08-29, 02:05:05,VALID,1009.34,VALID,0,VALID,97.8918,VALID,0,VALID,23.6745,VALID,14,VALID,0,
2009-08-29, 02:06:05,VALID,1009.36,VALID,0,VALID,97.9223,VALID,0,VALID,23.694,VALID,14,VALID,0,
2009-08-29, 02:07:05,VALID,1009.34,VALID,0,VALID,97.9299,VALID,0,VALID,23.6532,VALID,14,VALID,0,
2009-08-29, 02:08:05,VALID,1009.35,VALID,0,VALID,97.9376,VALID,0,VALID,23.694,VALID,14,VALID,0,
2009-08-29, 02:09:05,VALID,1009.33,VALID,0,VALID,97.9376,VALID,0,VALID,23.6745,VALID,14,VALID,0,
2009-08-29, 02:10:05,VALID,1009.31,VALID,0,VALID,97.9376,VALID,0,VALID,23.6745,VALID,14,VALID,0,
2009-08-29, 02:11:05,VALID,1009.32,VALID,0,VALID,97.9299,VALID,0,VALID,23.6745,VALID,14,VALID,0,
2009-08-29, 02:12:05,VALID,1009.31,VALID,0,VALID,97.9223,VALID,0,VALID,23.6745,VALID,14,VALID,0,
2009-08-29, 02:13:05,VALID,1009.31,VALID,0,VALID,97.9376,VALID,0,VALID,23.6745,VALID,14,VALID,0,
2009-08-29, 02:14:05,VALID,1009.32,VALID,0,VALID,97.9376,VALID,0,VALID,23.6745,VALID,14,VALID,0,
2009-08-29, 02:15:05,VALID,1009.3,VALID,0,VALID,97.9376,VALID,0,VALID,23.6745,VALID,14,VALID,0,
2009-08-29, 02:16:05,VALID,1009.29,VALID,0,VALID,97.9223,VALID,0,VALID,23.6745,VALID,14,VALID,0,
2009-08-29, 02:17:05,VALID,1009.31,VALID,0,VALID,97.9376,VALID,0,VALID,23.6958,VALID,14,VALID,0,
2009-08-29, 02:18:05,VALID,1009.29,VALID,0,VALID,97.9604,VALID,0,VALID,23.6745,VALID,14,VALID,0,
2009-08-29, 02:19:05,VALID,1009.29,VALID,0,VALID,97.9604,VALID,0,VALID,23.6745,VALID,14,VALID,0,
2009-08-29, 02:20:05,VALID,1009.28,VALID,0,VALID,97.9528,VALID,0,VALID,23.6745,VALID,14,VALID,0,
2009-08-29, 02:21:05,VALID,1009.29,VALID,0,VALID,97.9604,VALID,0,VALID,23.6745,VALID,14,VALID,0,
2009-08-29, 02:22:05,VALID,1009.28,VALID,0,VALID,97.9681,VALID,0,VALID,23.694,VALID,14,VALID,0,
2009-08-29, 02:23:05,VALID,1009.29,VALID,0,VALID,97.9528,VALID,0,VALID,23.694,VALID,14,VALID,0,
2009-08-29, 02:24:05,VALID,1009.3,VALID,0,VALID,97.9528,VALID,0,VALID,23.694,VALID,14,VALID,0,
2009-08-29, 02:25:05,VALID,1009.33,VALID,0,VALID,97.9604,VALID,0,VALID,23.694,VALID,14,VALID,0,
2009-08-29, 02:26:05,VALID,1009.29,VALID,0,VALID,97.9528,VALID,0,VALID,23.694,VALID,14,VALID,0,
2009-08-29, 02:27:05,VALID,1009.32,VALID,0,VALID,97.9604,VALID,0,VALID,23.7135,VALID,14,VALID,0,
2009-08-29, 02:28:05,VALID,1009.32,VALID,0,VALID,97.9681,VALID,0,VALID,23.7135,VALID,14,VALID,0.439063,
2009-08-29, 02:29:05,VALID,1009.34,VALID,0,VALID,97.9757,VALID,0,VALID,23.7135,VALID,14,VALID,0.283594,
2009-08-29, 02:30:05,VALID,1009.32,VALID,0,VALID,97.9681,VALID,0,VALID,23.6727,VALID,14,VALID,0.071875,
2009-08-29, 02:31:05,VALID,1009.35,VALID,0,VALID,97.9833,VALID,0,VALID,23.694,VALID,14,VALID,0.310937,
2009-08-29, 02:32:05,VALID,1009.34,VALID,0,VALID,97.9681,VALID,0,VALID,23.6745,VALID,14,VALID,0.237109,
2009-08-29, 02:33:05,VALID,1009.32,VALID,0,VALID,97.9833,VALID,0,VALID,23.694,VALID,14,VALID,0.108203,
2009-08-29, 02:34:05,VALID,1009.35,VALID,0,VALID,97.9833,VALID,0,VALID,23.6745,VALID,14,VALID,0,
2009-08-29, 02:35:05,VALID,1009.34,VALID,0,VALID,97.9833,VALID,0,VALID,23.655,VALID,14,VALID,0,
2009-08-29, 02:36:05,VALID,1009.32,VALID,0,VALID,97.9833,VALID,0,VALID,23.6338,VALID,14,VALID,0,
2009-08-29, 02:37:05,VALID,1009.32,VALID,0,VALID,97.9986,VALID,0.105969,VALID,23.6356,VALID,14,VALID,0,
2009-08-29, 02:38:05,VALID,1009.29,VALID,0,VALID,98.0062,VALID,0.105969,VALID,23.6143,VALID,14,VALID,0,
2009-08-29, 02:39:05,VALID,1009.3,VALID,0,VALID,97.9909,VALID,0,VALID,23.6161,VALID,14,VALID,0,
2009-08-29, 02:40:05,VALID,1009.29,VALID,0,VALID,98.0062,VALID,0,VALID,23.5948,VALID,14,VALID,0,
2009-08-29, 02:41:05,VALID,1009.29,VALID,0,VALID,98.0138,VALID,0,VALID,23.5948,VALID,14,VALID,0,
2009-08-29, 02:42:05,VALID,1009.27,VALID,0,VALID,97.9833,VALID,0,VALID,23.5966,VALID,14,VALID,0,
2009-08-29, 02:43:05,VALID,1009.25,VALID,0,VALID,97.9986,VALID,0,VALID,23.5966,VALID,14,VALID,0,
2009-08-29, 02:44:05,VALID,1009.26,VALID,0,VALID,97.9909,VALID,0.105969,VALID,23.5753,VALID,14,VALID,0,
2009-08-29, 02:45:05,VALID,1009.25,VALID,0,VALID,98.0138,VALID,0,VALID,23.5576,VALID,14,VALID,0,
2009-08-29, 02:46:05,VALID,1009.26,VALID,0,VALID,97.9833,VALID,0,VALID,23.5576,VALID,14,VALID,0,
2009-08-29, 02:47:05,VALID,1009.29,VALID,0,VALID,97.9909,VALID,0,VALID,23.5771,VALID,44,VALID,0,
2009-08-29, 02:48:05,VALID,1009.27,VALID,0,VALID,97.9833,VALID,0,VALID,23.5576,VALID,45,VALID,0,
2009-08-29, 02:49:05,VALID,1009.25,VALID,0,VALID,97.9986,VALID,0,VALID,23.5576,VALID,45,VALID,0,
2009-08-29, 02:50:05,VALID,1009.24,VALID,0,VALID,97.9833,VALID,0,VALID,23.5363,VALID,54,VALID,0,
2009-08-29, 02:51:05,VALID,1009.25,VALID,0,VALID,97.9757,VALID,0,VALID,23.5576,VALID,54,VALID,0,
2009-08-29, 02:52:05,VALID,1009.25,VALID,0,VALID,97.9986,VALID,0.105969,VALID,23.5558,VALID,54,VALID,0,
2009-08-29, 02:53:05,VALID,1009.22,VALID,0,VALID,97.9833,VALID,0.105969,VALID,23.5771,VALID,63,VALID,0.189063,
2009-08-29, 02:54:05,VALID,1009.2,VALID,0,VALID,97.9757,VALID,0,VALID,23.5771,VALID,63,VALID,0.0507813,
2009-08-29, 02:55:05,VALID,1009.21,VALID,0,VALID,97.9757,VALID,0,VALID,23.5558,VALID,63,VALID,0.219141,
2009-08-29, 02:56:05,VALID,1009.21,VALID,0,VALID,97.9604,VALID,0,VALID,23.5558,VALID,63,VALID,0.242188,
2009-08-29, 02:57:05,VALID,1009.21,VALID,0,VALID,97.9528,VALID,0,VALID,23.5363,VALID,63,VALID,0.175391,
2009-08-29, 02:58:05,VALID,1009.2,VALID,0,VALID,97.9604,VALID,0,VALID,23.5363,VALID,63,VALID,0.184375,
2009-08-29, 02:59:05,VALID,1009.21,VALID,0,VALID,97.9452,VALID,0,VALID,23.5381,VALID,63,VALID,0.0941406,
2009-08-29, 03:00:05,VALID,1009.21,VALID,0,VALID,97.9376,VALID,0,VALID,23.5186,VALID,63,VALID,0.198047,
2009-08-29, 03:01:05,VALID,1009.23,VALID,0,VALID,97.9604,VALID,0,VALID,23.4992,VALID,63,VALID,0.102344,
2009-08-29, 03:02:05,VALID,1009.21,VALID,0,VALID,97.9452,VALID,0,VALID,23.4797,VALID,63,VALID,0.316016,
2009-08-29, 03:03:05,VALID,1009.22,VALID,0,VALID,97.9604,VALID,0,VALID,23.4602,VALID,63,VALID,0.296094,
2009-08-29, 03:04:05,VALID,1009.26,VALID,0,VALID,97.9528,VALID,0,VALID,23.4407,VALID,63,VALID,0.366406,
2009-08-29, 03:05:05,VALID,1009.27,VALID,0,VALID,97.9681,VALID,0,VALID,23.4407,VALID,64,VALID,0.121484,
2009-08-29, 03:06:05,VALID,1009.25,VALID,0,VALID,97.9528,VALID,0,VALID,23.4212,VALID,64,VALID,0.0523437,
2009-08-29, 03:07:05,VALID,1009.27,VALID,0,VALID,97.9757,VALID,0.105969,VALID,23.4,VALID,64,VALID,0,
2009-08-29, 03:08:05,VALID,1009.27,VALID,0,VALID,97.9604,VALID,0,VALID,23.4212,VALID,64,VALID,0,
2009-08-29, 03:09:05,VALID,1009.29,VALID,0,VALID,97.9681,VALID,0,VALID,23.4017,VALID,64,VALID,0,
2009-08-29, 03:10:05,VALID,1009.29,VALID,0,VALID,97.9909,VALID,0.105969,VALID,23.4,VALID,64,VALID,0,
2009-08-29, 03:11:05,VALID,1009.31,VALID,0,VALID,97.9833,VALID,0,VALID,23.4017,VALID,64,VALID,0,
2009-08-29, 03:12:05,VALID,1009.28,VALID,0,VALID,97.9986,VALID,0,VALID,23.4017,VALID,64,VALID,0,
2009-08-29, 03:13:05,VALID,1009.27,VALID,0,VALID,97.9909,VALID,0.105969,VALID,23.4017,VALID,64,VALID,0,
2009-08-29, 03:14:05,VALID,1009.28,VALID,0,VALID,98.0062,VALID,0,VALID,23.361,VALID,64,VALID,0,
2009-08-29, 03:15:05,VALID,1009.26,VALID,0,VALID,98.0138,VALID,0,VALID,23.3823,VALID,64,VALID,0,
2009-08-29, 03:16:05,VALID,1009.27,VALID,0,VALID,97.9986,VALID,0,VALID,23.3628,VALID,64,VALID,0,
2009-08-29, 03:17:05,VALID,1009.29,VALID,0,VALID,98.0214,VALID,0,VALID,23.3823,VALID,64,VALID,0,
2009-08-29, 03:18:05,VALID,1009.29,VALID,0,VALID,98.0214,VALID,0,VALID,23.361,VALID,64,VALID,0,
2009-08-29, 03:19:05,VALID,1009.32,VALID,0,VALID,98.0291,VALID,0,VALID,23.3823,VALID,64,VALID,0,
2009-08-29, 03:20:05,VALID,1009.32,VALID,0,VALID,98.0062,VALID,0.105969,VALID,23.361,VALID,64,VALID,0,
2009-08-29, 03:21:05,VALID,1009.34,VALID,0,VALID,98.0367,VALID,0,VALID,23.361,VALID,64,VALID,0,
2009-08-29, 03:22:05,VALID,1009.36,VALID,0,VALID,98.0291,VALID,0,VALID,23.3823,VALID,64,VALID,0.270312,
2009-08-29, 03:23:05,VALID,1009.33,VALID,0,VALID,98.0291,VALID,0,VALID,23.3823,VALID,64,VALID,0,
2009-08-29, 03:24:05,VALID,1009.36,VALID,0,VALID,98.0291,VALID,0,VALID,23.3823,VALID,64,VALID,0,
2009-08-29, 03:25:05,VALID,1009.36,VALID,0,VALID,98.0519,VALID,0,VALID,23.3823,VALID,64,VALID,0,
2009-08-29, 03:26:05,VALID,1009.36,VALID,0,VALID,98.0443,VALID,0,VALID,23.3823,VALID,64,VALID,0,
2009-08-29, 03:27:05,VALID,1009.39,VALID,0,VALID,98.0519,VALID,0,VALID,23.3823,VALID,64,VALID,0,
2009-08-29, 03:28:04,VALID,1009.39,VALID,0,VALID,98.0519,VALID,0,VALID,23.3823,VALID,106,VALID,0.59375,
2009-08-29, 03:29:04,VALID,1009.42,VALID,0,VALID,98.0672,VALID,0,VALID,23.4212,VALID,106,VALID,0.566797,
2009-08-29, 03:30:04,VALID,1009.44,VALID,0,VALID,98.0596,VALID,0,VALID,23.4017,VALID,101,VALID,0.546875,
2009-08-29, 03:31:04,VALID,1009.45,VALID,0,VALID,98.0519,VALID,0,VALID,23.4212,VALID,78,VALID,0.638672,
2009-08-29, 03:32:04,VALID,1009.49,VALID,0,VALID,98.0443,VALID,0,VALID,23.4212,VALID,77,VALID,0.489062,
2009-08-29, 03:33:04,VALID,1009.49,VALID,0,VALID,98.0443,VALID,0,VALID,23.4212,VALID,76,VALID,0.514063,
2009-08-29, 03:34:04,VALID,1009.49,VALID,0,VALID,98.0596,VALID,0.105969,VALID,23.4407,VALID,70,VALID,0.410547,
2009-08-29, 03:35:04,VALID,1009.49,VALID,0,VALID,98.0291,VALID,0.105969,VALID,23.4602,VALID,68,VALID,0.424609,
2009-08-29, 03:36:04,VALID,1009.5,VALID,0,VALID,98.0443,VALID,0,VALID,23.4407,VALID,67,VALID,0.389453,
2009-08-29, 03:37:04,VALID,1009.52,VALID,0,VALID,98.0367,VALID,0.105969,VALID,23.4389,VALID,67,VALID,0,
2009-08-29, 03:38:04,VALID,1009.53,VALID,0,VALID,97.9986,VALID,0,VALID,23.4602,VALID,67,VALID,0,
2009-08-29, 03:39:04,VALID,1009.52,VALID,0,VALID,97.9909,VALID,0,VALID,23.4602,VALID,67,VALID,0,
2009-08-29, 03:40:04,VALID,1009.53,VALID,0,VALID,97.9986,VALID,0.105969,VALID,23.4407,VALID,67,VALID,0,
2009-08-29, 03:41:04,VALID,1009.57,VALID,0,VALID,97.9986,VALID,0,VALID,23.4407,VALID,67,VALID,0,
2009-08-29, 03:42:04,VALID,1009.55,VALID,0,VALID,97.9833,VALID,0,VALID,23.4407,VALID,67,VALID,0,
2009-08-29, 03:43:04,VALID,1009.54,VALID,0,VALID,97.9909,VALID,0,VALID,23.4407,VALID,67,VALID,0,
2009-08-29, 03:44:04,VALID,1009.54,VALID,0,VALID,97.9833,VALID,0,VALID,23.4194,VALID,67,VALID,0,
2009-08-29, 03:45:04,VALID,1009.55,VALID,0,VALID,97.9757,VALID,0.105969,VALID,23.4212,VALID,67,VALID,0,
2009-08-29, 03:46:04,VALID,1009.57,VALID,0,VALID,97.9833,VALID,0,VALID,23.4212,VALID,67,VALID,0,
2009-08-29, 03:47:04,VALID,1009.58,VALID,0,VALID,97.9757,VALID,0,VALID,23.4,VALID,67,VALID,0,
2009-08-29, 03:48:04,VALID,1009.57,VALID,0,VALID,97.9757,VALID,0.105969,VALID,23.4212,VALID,67,VALID,0.112891,
2009-08-29, 03:49:04,VALID,1009.58,VALID,0,VALID,97.9833,VALID,0,VALID,23.4212,VALID,67,VALID,0,
2009-08-29, 03:50:04,VALID,1009.59,VALID,0,VALID,97.9757,VALID,0,VALID,23.4,VALID,67,VALID,0,
2009-08-29, 03:51:04,VALID,1009.57,VALID,0,VALID,97.9833,VALID,0.105969,VALID,23.4,VALID,67,VALID,0.419141,
2009-08-29, 03:52:04,VALID,1009.58,VALID,0,VALID,97.9757,VALID,0,VALID,23.4212,VALID,67,VALID,0.23125,
2009-08-29, 03:53:04,VALID,1009.58,VALID,0,VALID,97.9909,VALID,0,VALID,23.4,VALID,67,VALID,0.326172,
2009-08-29, 03:54:04,VALID,1009.6,VALID,0,VALID,97.9909,VALID,0.105969,VALID,23.4407,VALID,67,VALID,0.303906,